Location: Agadir-Ikarkaouin
(31.1503°N, 9.0246°W)
Time: 03:59:27
(UTC+00:00)

Cosmos 158 Rocket - Pass Details

Date: 18 September 2020
Orbit: 699 x 793 km, 74.0° (Epoch: 23 October)

Event Time Altitude Azimuth Distance (km) Brightness Sun altitude
Rises 19:16:31 0° 345° (NNW) 3,245 7.6 -9.2°
Reaches altitude 10° 19:18:56 10° 347° (NNW) 2,302 6.8 -9.7°
Maximum altitude 19:24:09 77° 73° (ENE) 771 3.9 -10.8°
Drops below altitude 10° 19:29:12 10° 160° (SSE) 2,226 6.1 -11.9°
Sets 19:31:30 0° 161° (SSE) 3,130 6.9 -12.3°
